Saint Bonnet de Bellac- Haute Vienne - France
Donnes mto: samedi, 31/03/2012
Date Horaire Temp. E. Hum. E. P.atmo. Pluie Vent Direction Direction Ensoleilleme Solaire P. de rose Temp au vent Rafales
31/03/2012 00:00 10,6 C 69 % 1017,2 hPa 0,0 mm 2,9 km/h (1 Bft) N-NE 22 0 min 0 W/m 5,2 C 10,6 C 4,3 km/h (1 Bft)
31/03/2012 00:10 10,4 C 69 % 1017,1 hPa 0,0 mm 2,5 km/h (1 Bft) N-NE 22 0 min 0 W/m 5,0 C 10,4 C 4,0 km/h (1 Bft)
31/03/2012 00:20 10,4 C 70 % 1017,2 hPa 0,0 mm 1,1 km/h (1 Bft) N-NE 22 0 min 0 W/m 5,2 C 10,4 C 3,6 km/h (1 Bft)
31/03/2012 00:30 10,3 C 70 % 1017,1 hPa 0,0 mm 2,5 km/h (1 Bft) NE 45 0 min 0 W/m 5,1 C 10,3 C 3,6 km/h (1 Bft)
31/03/2012 00:40 10,3 C 70 % 1017,0 hPa 0,0 mm 0,4 km/h (0 Bft) NE 45 0 min 0 W/m 5,1 C 10,3 C 0,4 km/h (0 Bft)
31/03/2012 00:50 10,1 C 70 % 1016,9 hPa 0,0 mm 1,1 km/h (1 Bft) N-NE 22 0 min 0 W/m 4,9 C 10,1 C 4,0 km/h (1 Bft)
31/03/2012 01:00 9,8 C 71 % 1016,9 hPa 0,0 mm 0,0 km/h (0 Bft) NE 45 0 min 0 W/m 4,8 C 9,8 C 0,0 km/h (0 Bft)
31/03/2012 01:10 9,5 C 71 % 1016,8 hPa 0,0 mm 2,9 km/h (1 Bft) NE 45 0 min 0 W/m 4,5 C 9,5 C 6,5 km/h (2 Bft)
31/03/2012 01:20 9,3 C 72 % 1016,7 hPa 0,0 mm 0,0 km/h (0 Bft) N-NE 22 0 min 0 W/m 4,5 C 9,3 C 1,8 km/h (1 Bft)
31/03/2012 01:30 9,1 C 72 % 1016,5 hPa 0,0 mm 0,0 km/h (0 Bft) N-NE 22 0 min 0 W/m 4,3 C 9,1 C 0,0 km/h (0 Bft)
31/03/2012 01:40 8,8 C 72 % 1016,5 hPa 0,0 mm 0,0 km/h (0 Bft) N-NE 22 0 min 0 W/m 4,0 C 8,8 C 0,0 km/h (0 Bft)
31/03/2012 01:50 8,3 C 74 % 1016,5 hPa 0,0 mm 0,0 km/h (0 Bft) N-NE 22 0 min 0 W/m 3,9 C 8,3 C 0,0 km/h (0 Bft)
31/03/2012 02:00 7,9 C 74 % 1016,4 hPa 0,0 mm 0,0 km/h (0 Bft) N-NE 22 0 min 0 W/m 3,6 C 7,9 C 0,0 km/h (0 Bft)
31/03/2012 02:10 7,4 C 74 % 1016,4 hPa 0,0 mm 0,0 km/h (0 Bft) N-NE 22 0 min 0 W/m 3,1 C 7,4 C 0,0 km/h (0 Bft)
31/03/2012 02:20 7,1 C 75 % 1016,3 hPa 0,0 mm 0,0 km/h (0 Bft) N-NE 22 0 min 0 W/m 3,0 C 7,1 C 0,0 km/h (0 Bft)
31/03/2012 02:30 6,8 C 77 % 1016,2 hPa 0,0 mm 0,0 km/h (0 Bft) N-NE 22 0 min 0 W/m 3,1 C 6,8 C 0,0 km/h (0 Bft)
31/03/2012 02:40 6,6 C 77 % 1016,1 hPa 0,0 mm 0,0 km/h (0 Bft) N-NE 22 0 min 0 W/m 2,9 C 6,6 C 0,0 km/h (0 Bft)
31/03/2012 02:50 6,5 C 78 % 1016,0 hPa 0,0 mm 0,0 km/h (0 Bft) N-NE 22 0 min 0 W/m 2,9 C 6,5 C 0,0 km/h (0 Bft)
31/03/2012 03:02 6,5 C 78 % 1015,9 hPa 0,0 mm 0,0 km/h (0 Bft) N-NE 22 0 min 0 W/m 2,9 C 6,5 C 0,0 km/h (0 Bft)
31/03/2012 03:10 6,4 C 78 % 1015,8 hPa 0,0 mm 0,0 km/h (0 Bft) N-NE 22 0 min 0 W/m 2,8 C 6,4 C 0,0 km/h (0 Bft)
31/03/2012 03:20 6,3 C 79 % 1015,7 hPa 0,0 mm 0,0 km/h (0 Bft) N-NE 22 0 min 0 W/m 2,9 C 6,3 C 0,0 km/h (0 Bft)
31/03/2012 03:30 6,2 C 79 % 1015,6 hPa 0,0 mm 0,0 km/h (0 Bft) N-NE 22 0 min 0 W/m 2,8 C 6,2 C 0,0 km/h (0 Bft)
31/03/2012 03:40 6,1 C 80 % 1015,4 hPa 0,0 mm 0,0 km/h (0 Bft) N-NE 22 0 min 0 W/m 2,9 C 6,1 C 0,0 km/h (0 Bft)
31/03/2012 03:50 6,3 C 82 % 1015,4 hPa 0,0 mm 1,1 km/h (1 Bft) N 360 0 min 0 W/m 3,5 C 6,3 C 3,2 km/h (1 Bft)
31/03/2012 04:00 6,2 C 82 % 1015,3 hPa 0,0 mm 0,0 km/h (0 Bft) N 360 0 min 0 W/m 3,4 C 6,2 C 0,0 km/h (0 Bft)
31/03/2012 04:10 5,9 C 81 % 1015,2 hPa 0,0 mm 0,0 km/h (0 Bft) N-NO 337 0 min 0 W/m 2,9 C 5,9 C 0,0 km/h (0 Bft)
31/03/2012 04:20 5,8 C 82 % 1015,3 hPa 0,0 mm 0,4 km/h (0 Bft) NE 45 0 min 0 W/m 3,0 C 5,8 C 1,4 km/h (1 Bft)
31/03/2012 04:30 5,8 C 82 % 1015,0 hPa 0,0 mm 0,7 km/h (0 Bft) N 360 0 min 0 W/m 3,0 C 5,8 C 3,2 km/h (1 Bft)
31/03/2012 04:40 5,8 C 82 % 1015,1 hPa 0,0 mm 0,0 km/h (0 Bft) N 360 0 min 0 W/m 3,0 C 5,8 C 0,0 km/h (0 Bft)
31/03/2012 04:50 5,7 C 82 % 1015,0 hPa 0,0 mm 0,0 km/h (0 Bft) N-NE 22 0 min 0 W/m 2,9 C 5,7 C 1,4 km/h (1 Bft)
31/03/2012 05:00 5,6 C 82 % 1014,9 hPa 0,0 mm 0,0 km/h (0 Bft) N-NE 22 0 min 0 W/m 2,8 C 5,6 C 0,0 km/h (0 Bft)
31/03/2012 05:10 5,3 C 82 % 1014,7 hPa 0,0 mm 0,0 km/h (0 Bft) N 360 0 min 0 W/m 2,5 C 5,3 C 0,0 km/h (0 Bft)
31/03/2012 05:20 5,1 C 83 % 1014,7 hPa 0,0 mm 0,0 km/h (0 Bft) N 360 0 min 0 W/m 2,5 C 5,1 C 0,0 km/h (0 Bft)
31/03/2012 05:30 4,9 C 83 % 1014,6 hPa 0,0 mm 0,0 km/h (0 Bft) N 360 0 min 0 W/m 2,3 C 4,9 C 0,0 km/h (0 Bft)
31/03/2012 05:40 4,8 C 83 % 1014,7 hPa 0,0 mm 0,0 km/h (0 Bft) N 360 0 min 0 W/m 2,2 C 4,8 C 0,0 km/h (0 Bft)
31/03/2012 05:50 4,6 C 85 % 1014,5 hPa 0,0 mm 0,0 km/h (0 Bft) N 360 0 min 0 W/m 2,3 C 4,6 C 0,0 km/h (0 Bft)
31/03/2012 06:00 4,5 C 84 % 1014,3 hPa 0,0 mm 0,0 km/h (0 Bft) N 360 0 min 0 W/m 2,0 C 4,5 C 0,0 km/h (0 Bft)
31/03/2012 06:10 4,3 C 85 % 1014,3 hPa 0,0 mm 0,0 km/h (0 Bft) N 360 0 min 0 W/m 2,0 C 4,3 C 0,0 km/h (0 Bft)
31/03/2012 06:20 4,2 C 84 % 1014,3 hPa 0,0 mm 0,0 km/h (0 Bft) N 360 0 min 0 W/m 1,7 C 4,2 C 0,0 km/h (0 Bft)
31/03/2012 06:30 4,2 C 85 % 1014,2 hPa 0,0 mm 0,0 km/h (0 Bft) N 360 0 min 0 W/m 1,9 C 4,2 C 0,0 km/h (0 Bft)
31/03/2012 06:40 3,9 C 85 % 1014,2 hPa 0,0 mm 0,0 km/h (0 Bft) N 360 0 min 0 W/m 1,6 C 3,9 C 0,0 km/h (0 Bft)
31/03/2012 06:50 3,8 C 85 % 1014,1 hPa 0,0 mm 0,0 km/h (0 Bft) N 360 0 min 0 W/m 1,5 C 3,8 C 0,0 km/h (0 Bft)
31/03/2012 07:00 3,8 C 85 % 1014,2 hPa 0,0 mm 0,0 km/h (0 Bft) N 360 0 min 0 W/m 1,5 C 3,8 C 0,0 km/h (0 Bft)
31/03/2012 07:10 3,8 C 86 % 1014,2 hPa 0,0 mm 0,0 km/h (0 Bft) N 360 0 min 0 W/m 1,7 C 3,8 C 0,0 km/h (0 Bft)
31/03/2012 07:20 3,8 C 86 % 1014,1 hPa 0,0 mm 0,0 km/h (0 Bft) N 360 0 min 0 W/m 1,7 C 3,8 C 0,0 km/h (0 Bft)
31/03/2012 07:30 3,8 C 86 % 1014,0 hPa 0,0 mm 0,0 km/h (0 Bft) N 360 0 min 0 W/m 1,7 C 3,8 C 0,0 km/h (0 Bft)
31/03/2012 07:40 3,6 C 86 % 1013,9 hPa 0,0 mm 0,0 km/h (0 Bft) N 360 0 min 0 W/m 1,5 C 3,6 C 0,0 km/h (0 Bft)
31/03/2012 07:50 3,6 C 86 % 1014,0 hPa 0,0 mm 0,0 km/h (0 Bft) SE 135 2 min 0 W/m 1,5 C 3,6 C 0,0 km/h (0 Bft)
31/03/2012 08:00 3,6 C 86 % 1013,9 hPa 0,0 mm 0,0 km/h (0 Bft) E-SE 112 2 min 0 W/m 1,5 C 3,6 C 3,2 km/h (1 Bft)
31/03/2012 08:10 3,8 C 86 % 1014,0 hPa 0,0 mm 0,0 km/h (0 Bft) E 90 2 min 0 W/m 1,7 C 3,8 C 0,0 km/h (0 Bft)
31/03/2012 08:20 4,1 C 87 % 1014,1 hPa 0,0 mm 0,4 km/h (0 Bft) E-SE 112 2 min 0 W/m 2,1 C 4,1 C 2,9 km/h (1 Bft)
31/03/2012 08:30 4,3 C 87 % 1014,0 hPa 0,0 mm 0,0 km/h (0 Bft) E-SE 112 2 min 0 W/m 2,3 C 4,3 C 0,0 km/h (0 Bft)
31/03/2012 08:40 4,4 C 88 % 1014,0 hPa 0,0 mm 0,0 km/h (0 Bft) E-SE 112 2 min 0 W/m 2,6 C 4,4 C 0,0 km/h (0 Bft)
31/03/2012 08:50 4,6 C 88 % 1014,2 hPa 0,0 mm 0,0 km/h (0 Bft) E-SE 112 2 min 0 W/m 2,8 C 4,6 C 0,0 km/h (0 Bft)
31/03/2012 09:00 5,1 C 88 % 1014,2 hPa 0,0 mm 0,0 km/h (0 Bft) E-SE 112 2 min 0 W/m 3,3 C 5,1 C 0,0 km/h (0 Bft)
31/03/2012 09:10 5,7 C 89 % 1014,2 hPa 0,0 mm 0,0 km/h (0 Bft) E-SE 112 2 min 0 W/m 4,0 C 5,7 C 0,0 km/h (0 Bft)
31/03/2012 09:20 6,4 C 88 % 1014,1 hPa 0,0 mm 0,0 km/h (0 Bft) E-SE 112 2 min 0 W/m 4,6 C 6,4 C 0,0 km/h (0 Bft)
31/03/2012 09:30 7,3 C 88 % 1014,2 hPa 0,0 mm 0,7 km/h (0 Bft) NE 45 2 min 0 W/m 5,4 C 7,3 C 4,0 km/h (1 Bft)
31/03/2012 09:40 8,0 C 87 % 1014,3 hPa 0,0 mm 0,0 km/h (0 Bft) NE 45 2 min 0 W/m 6,0 C 8,0 C 0,0 km/h (0 Bft)
31/03/2012 09:50 8,6 C 85 % 1014,2 hPa 0,0 mm 0,4 km/h (0 Bft) NE 45 2 min 0 W/m 6,2 C 8,6 C 2,9 km/h (1 Bft)
31/03/2012 10:00 9,2 C 83 % 1014,3 hPa 0,0 mm 0,0 km/h (0 Bft) N-NE 22 2 min 0 W/m 6,5 C 9,2 C 0,0 km/h (0 Bft)
31/03/2012 10:10 9,9 C 83 % 1014,2 hPa 0,0 mm 0,0 km/h (0 Bft) N-NE 22 2 min 0 W/m 7,2 C 9,9 C 0,0 km/h (0 Bft)
31/03/2012 10:20 10,9 C 81 % 1014,3 hPa 0,0 mm 0,0 km/h (0 Bft) N-NE 22 2 min 0 W/m 7,8 C 10,9 C 1,4 km/h (1 Bft)
31/03/2012 10:30 12,0 C 79 % 1014,3 hPa 0,0 mm 0,4 km/h (0 Bft) N-NE 22 2 min 0 W/m 8,5 C 12,0 C 3,6 km/h (1 Bft)
31/03/2012 10:40 12,9 C 76 % 1014,3 hPa 0,0 mm 1,1 km/h (1 Bft) N-NE 22 2 min 0 W/m 8,8 C 12,9 C 3,6 km/h (1 Bft)
31/03/2012 10:50 13,8 C 74 % 1014,1 hPa 0,0 mm 5,8 km/h (2 Bft) N-NE 22 2 min 0 W/m 9,2 C 13,8 C 6,5 km/h (2 Bft)
31/03/2012 11:00 14,8 C 70 % 1014,1 hPa 0,0 mm 9,0 km/h (2 Bft) NE 45 2 min 0 W/m 9,4 C 14,8 C 11,9 km/h (2 Bft)
31/03/2012 11:10 15,8 C 66 % 1014,1 hPa 0,0 mm 4,7 km/h (1 Bft) N-NE 22 2 min 0 W/m 9,5 C 15,8 C 6,5 km/h (2 Bft)
31/03/2012 11:20 16,4 C 62 % 1014,0 hPa 0,0 mm 10,4 km/h (2 Bft) N-NE 22 2 min 0 W/m 9,1 C 16,4 C 15,1 km/h (3 Bft)
31/03/2012 11:30 17,0 C 61 % 1014,2 hPa 0,0 mm 5,4 km/h (2 Bft) NE 45 2 min 0 W/m 9,4 C 17,0 C 10,4 km/h (2 Bft)
31/03/2012 11:40 17,6 C 56 % 1014,1 hPa 0,0 mm 9,4 km/h (2 Bft) NE 45 2 min 0 W/m 8,7 C 17,6 C 13,7 km/h (3 Bft)
31/03/2012 11:50 17,9 C 54 % 1014,0 hPa 0,0 mm 11,9 km/h (2 Bft) E-NE 67 2 min 0 W/m 8,5 C 17,9 C 17,3 km/h (3 Bft)
31/03/2012 12:00 18,4 C 53 % 1013,9 hPa 0,0 mm 9,7 km/h (2 Bft) NE 45 2 min 0 W/m 8,6 C 18,4 C 14,0 km/h (3 Bft)
31/03/2012 12:10 18,6 C 50 % 1014,0 hPa 0,0 mm 11,2 km/h (2 Bft) N-NE 22 2 min 0 W/m 8,0 C 18,6 C 17,6 km/h (3 Bft)
31/03/2012 12:20 18,8 C 49 % 1013,9 hPa 0,0 mm 13,3 km/h (3 Bft) NE 45 2 min 0 W/m 7,9 C 18,8 C 16,6 km/h (3 Bft)
31/03/2012 12:30 19,0 C 49 % 1014,0 hPa 0,0 mm 12,6 km/h (3 Bft) E-NE 67 2 min 0 W/m 8,0 C 19,0 C 17,3 km/h (3 Bft)
31/03/2012 12:40 19,3 C 47 % 1013,8 hPa 0,0 mm 11,5 km/h (2 Bft) N 360 2 min 0 W/m 7,7 C 19,3 C 17,3 km/h (3 Bft)
31/03/2012 12:50 19,4 C 47 % 1014,0 hPa 0,0 mm 10,8 km/h (2 Bft) N-NE 22 2 min 0 W/m 7,8 C 19,4 C 12,6 km/h (3 Bft)
31/03/2012 13:00 19,7 C 48 % 1013,9 hPa 0,0 mm 7,9 km/h (2 Bft) NE 45 2 min 0 W/m 8,4 C 19,7 C 10,8 km/h (2 Bft)
31/03/2012 13:10 20,0 C 47 % 1013,7 hPa 0,0 mm 8,3 km/h (2 Bft) N-NE 22 2 min 0 W/m 8,3 C 20,0 C 12,6 km/h (3 Bft)
31/03/2012 13:20 20,1 C 47 % 1013,7 hPa 0,0 mm 9,0 km/h (2 Bft) E-NE 67 2 min 0 W/m 8,4 C 20,1 C 14,4 km/h (3 Bft)
31/03/2012 13:30 20,1 C 46 % 1013,7 hPa 0,0 mm 13,7 km/h (3 Bft) N-NE 22 2 min 0 W/m 8,1 C 20,1 C 18,4 km/h (3 Bft)
31/03/2012 13:40 20,1 C 48 % 1013,7 hPa 0,0 mm 9,0 km/h (2 Bft) NE 45 2 min 0 W/m 8,7 C 20,1 C 14,4 km/h (3 Bft)
31/03/2012 13:50 20,2 C 47 % 1013,6 hPa 0,0 mm 10,4 km/h (2 Bft) N-NE 22 2 min 0 W/m 8,5 C 20,2 C 14,8 km/h (3 Bft)
31/03/2012 14:00 20,3 C 48 % 1013,6 hPa 0,0 mm 5,8 km/h (2 Bft) E-NE 67 2 min 0 W/m 8,9 C 20,3 C 8,3 km/h (2 Bft)
31/03/2012 14:10 20,4 C 46 % 1013,6 hPa 0,0 mm 6,1 km/h (2 Bft) NE 45 2 min 0 W/m 8,4 C 20,4 C 6,8 km/h (2 Bft)
31/03/2012 14:20 20,5 C 47 % 1013,4 hPa 0,0 mm 0,7 km/h (0 Bft) NE 45 2 min 0 W/m 8,8 C 20,5 C 6,1 km/h (2 Bft)
31/03/2012 14:30 20,6 C 45 % 1013,3 hPa 0,0 mm 10,8 km/h (2 Bft) NE 45 2 min 0 W/m 8,2 C 20,6 C 18,4 km/h (3 Bft)
31/03/2012 14:40 20,4 C 46 % 1013,2 hPa 0,0 mm 4,3 km/h (1 Bft) N 360 2 min 0 W/m 8,4 C 20,4 C 6,1 km/h (2 Bft)
31/03/2012 14:50 20,4 C 46 % 1013,1 hPa 0,0 mm 9,7 km/h (2 Bft) NO 315 2 min 0 W/m 8,4 C 20,4 C 11,5 km/h (2 Bft)
31/03/2012 15:00 20,4 C 47 % 1013,1 hPa 0,0 mm 6,8 km/h (2 Bft) N 360 2 min 0 W/m 8,7 C 20,4 C 8,6 km/h (2 Bft)
31/03/2012 15:10 20,4 C 46 % 1013,0 hPa 0,0 mm 7,6 km/h (2 Bft) N-NE 22 2 min 0 W/m 8,4 C 20,4 C 8,3 km/h (2 Bft)
31/03/2012 15:20 20,3 C 46 % 1012,9 hPa 0,0 mm 6,1 km/h (2 Bft) N 360 2 min 0 W/m 8,3 C 20,3 C 8,6 km/h (2 Bft)
31/03/2012 15:30 20,3 C 47 % 1012,9 hPa 0,0 mm 7,2 km/h (2 Bft) NE 45 2 min 0 W/m 8,6 C 20,3 C 12,6 km/h (3 Bft)
31/03/2012 15:40 20,4 C 47 % 1012,7 hPa 0,0 mm 5,4 km/h (2 Bft) N-NE 22 2 min 0 W/m 8,7 C 20,4 C 10,8 km/h (2 Bft)
31/03/2012 15:50 20,4 C 47 % 1012,6 hPa 0,0 mm 3,2 km/h (1 Bft) N 360 2 min 0 W/m 8,7 C 20,4 C 3,6 km/h (1 Bft)
31/03/2012 16:00 20,6 C 47 % 1012,6 hPa 0,0 mm 6,1 km/h (2 Bft) NE 45 2 min 0 W/m 8,9 C 20,6 C 7,2 km/h (2 Bft)
31/03/2012 16:10 20,4 C 48 % 1012,4 hPa 0,0 mm 5,0 km/h (1 Bft) NE 45 2 min 0 W/m 9,0 C 20,4 C 5,0 km/h (1 Bft)
31/03/2012 16:20 20,5 C 48 % 1012,2 hPa 0,0 mm 5,0 km/h (1 Bft) NE 45 2 min 0 W/m 9,1 C 20,5 C 8,6 km/h (2 Bft)
31/03/2012 16:30 20,3 C 47 % 1012,0 hPa 0,0 mm 9,4 km/h (2 Bft) N 360 2 min 0 W/m 8,6 C 20,3 C 10,4 km/h (2 Bft)
31/03/2012 16:40 20,3 C 48 % 1011,9 hPa 0,0 mm 8,3 km/h (2 Bft) N-NE 22 2 min 0 W/m 8,9 C 20,3 C 13,0 km/h (3 Bft)
31/03/2012 16:50 20,3 C 47 % 1011,8 hPa 0,0 mm 7,2 km/h (2 Bft) NE 45 2 min 0 W/m 8,6 C 20,3 C 8,3 km/h (2 Bft)
31/03/2012 17:00 20,1 C 47 % 1011,7 hPa 0,0 mm 10,8 km/h (2 Bft) E-NE 67 2 min 0 W/m 8,4 C 20,1 C 12,6 km/h (3 Bft)
31/03/2012 17:10 19,9 C 48 % 1011,6 hPa 0,0 mm 9,0 km/h (2 Bft) N 360 2 min 0 W/m 8,6 C 19,9 C 16,6 km/h (3 Bft)
31/03/2012 17:20 19,9 C 47 % 1011,5 hPa 0,0 mm 13,3 km/h (3 Bft) N-NE 22 2 min 0 W/m 8,3 C 19,9 C 19,1 km/h (3 Bft)
31/03/2012 17:30 19,8 C 49 % 1011,5 hPa 0,0 mm 10,4 km/h (2 Bft) NE 45 2 min 0 W/m 8,8 C 19,8 C 13,3 km/h (3 Bft)
31/03/2012 17:40 19,8 C 49 % 1011,4 hPa 0,0 mm 9,4 km/h (2 Bft) NE 45 2 min 0 W/m 8,8 C 19,8 C 10,8 km/h (2 Bft)
31/03/2012 17:50 19,6 C 49 % 1011,3 hPa 0,0 mm 11,9 km/h (2 Bft) N-NE 22 2 min 0 W/m 8,6 C 19,6 C 19,4 km/h (3 Bft)
31/03/2012 18:00 19,4 C 48 % 1011,3 hPa 0,0 mm 14,4 km/h (3 Bft) N-NE 22 2 min 0 W/m 8,1 C 19,4 C 22,0 km/h (4 Bft)
31/03/2012 18:10 19,2 C 49 % 1011,3 hPa 0,0 mm 3,6 km/h (1 Bft) N-NE 22 2 min 0 W/m 8,2 C 19,2 C 3,6 km/h (1 Bft)
31/03/2012 18:20 19,1 C 48 % 1011,2 hPa 0,0 mm 7,9 km/h (2 Bft) E-NE 67 2 min 0 W/m 7,8 C 19,1 C 11,5 km/h (2 Bft)
31/03/2012 18:30 18,9 C 49 % 1011,2 hPa 0,0 mm 9,7 km/h (2 Bft) N-NE 22 2 min 0 W/m 7,9 C 18,9 C 9,7 km/h (2 Bft)
31/03/2012 18:40 18,8 C 49 % 1011,2 hPa 0,0 mm 11,5 km/h (2 Bft) NE 45 2 min 0 W/m 7,9 C 18,8 C 11,5 km/h (2 Bft)
31/03/2012 18:50 18,6 C 49 % 1011,2 hPa 0,0 mm 5,8 km/h (2 Bft) N 360 2 min 0 W/m 7,7 C 18,6 C 8,3 km/h (2 Bft)
31/03/2012 19:00 18,5 C 50 % 1011,2 hPa 0,0 mm 9,7 km/h (2 Bft) N 360 2 min 0 W/m 7,9 C 18,5 C 13,3 km/h (3 Bft)
31/03/2012 19:10 18,3 C 51 % 1011,3 hPa 0,0 mm 7,6 km/h (2 Bft) NE 45 2 min 0 W/m 8,0 C 18,3 C 11,9 km/h (2 Bft)
31/03/2012 19:20 18,0 C 51 % 1011,3 hPa 0,0 mm 8,3 km/h (2 Bft) N-NE 22 2 min 0 W/m 7,7 C 18,0 C 8,6 km/h (2 Bft)
31/03/2012 19:30 17,8 C 53 % 1011,4 hPa 0,0 mm 8,3 km/h (2 Bft) N-NE 22 2 min 0 W/m 8,1 C 17,8 C 11,5 km/h (2 Bft)
31/03/2012 19:40 17,4 C 52 % 1011,4 hPa 0,0 mm 9,0 km/h (2 Bft) NE 45 2 min 0 W/m 7,4 C 17,4 C 9,4 km/h (2 Bft)
31/03/2012 19:50 17,1 C 53 % 1011,4 hPa 0,0 mm 5,0 km/h (1 Bft) NE 45 2 min 0 W/m 7,4 C 17,1 C 6,8 km/h (2 Bft)
31/03/2012 20:00 16,5 C 54 % 1011,5 hPa 0,0 mm 4,0 km/h (1 Bft) NE 45 2 min 0 W/m 7,2 C 16,5 C 6,5 km/h (2 Bft)
31/03/2012 20:10 16,0 C 55 % 1011,5 hPa 0,0 mm 7,6 km/h (2 Bft) NE 45 2 min 0 W/m 7,0 C 16,0 C 10,4 km/h (2 Bft)
31/03/2012 20:20 15,4 C 57 % 1011,5 hPa 0,0 mm 5,0 km/h (1 Bft) N-NE 22 0 min 0 W/m 6,9 C 15,4 C 8,6 km/h (2 Bft)
31/03/2012 20:30 14,9 C 59 % 1011,6 hPa 0,0 mm 6,1 km/h (2 Bft) N 360 0 min 0 W/m 7,0 C 14,9 C 10,8 km/h (2 Bft)
31/03/2012 20:40 14,5 C 60 % 1011,6 hPa 0,0 mm 8,6 km/h (2 Bft) NE 45 0 min 0 W/m 6,8 C 14,5 C 9,7 km/h (2 Bft)
31/03/2012 20:50 14,2 C 61 % 1011,7 hPa 0,0 mm 4,3 km/h (1 Bft) N-NE 22 0 min 0 W/m 6,8 C 14,2 C 7,9 km/h (2 Bft)
31/03/2012 21:00 13,8 C 62 % 1011,7 hPa 0,0 mm 5,8 km/h (2 Bft) E-NE 67 0 min 0 W/m 6,6 C 13,8 C 7,6 km/h (2 Bft)
31/03/2012 21:10 13,4 C 63 % 1011,8 hPa 0,0 mm 8,6 km/h (2 Bft) E-NE 67 0 min 0 W/m 6,5 C 13,4 C 12,6 km/h (3 Bft)
31/03/2012 21:20 13,1 C 63 % 1011,8 hPa 0,0 mm 5,0 km/h (1 Bft) NE 45 0 min 0 W/m 6,2 C 13,1 C 6,5 km/h (2 Bft)
31/03/2012 21:30 12,8 C 64 % 1011,9 hPa 0,0 mm 6,1 km/h (2 Bft) NE 45 0 min 0 W/m 6,2 C 12,8 C 12,6 km/h (3 Bft)
31/03/2012 21:40 12,6 C 65 % 1012,0 hPa 0,0 mm 3,6 km/h (1 Bft) NE 45 0 min 0 W/m 6,2 C 12,6 C 6,5 km/h (2 Bft)
31/03/2012 21:50 12,3 C 66 % 1012,1 hPa 0,0 mm 6,5 km/h (2 Bft) E-NE 67 0 min 0 W/m 6,1 C 12,3 C 6,5 km/h (2 Bft)
31/03/2012 22:00 12,1 C 67 % 1012,3 hPa 0,0 mm 6,8 km/h (2 Bft) NE 45 0 min 0 W/m 6,2 C 12,1 C 13,0 km/h (3 Bft)
31/03/2012 22:10 11,8 C 68 % 1012,4 hPa 0,0 mm 5,8 km/h (2 Bft) NE 45 0 min 0 W/m 6,1 C 11,8 C 9,7 km/h (2 Bft)
31/03/2012 22:20 11,7 C 69 % 1012,5 hPa 0,0 mm 8,6 km/h (2 Bft) N-NE 22 0 min 0 W/m 6,2 C 11,7 C 15,1 km/h (3 Bft)
31/03/2012 22:30 11,4 C 70 % 1012,6 hPa 0,0 mm 10,1 km/h (2 Bft) E 90 0 min 0 W/m 6,1 C 11,4 C 18,4 km/h (3 Bft)
31/03/2012 22:40 11,2 C 71 % 1012,7 hPa 0,0 mm 13,3 km/h (3 Bft) N-NE 22 0 min 0 W/m 6,1 C 11,2 C 19,1 km/h (3 Bft)
31/03/2012 22:50 10,9 C 73 % 1012,8 hPa 0,0 mm 6,5 km/h (2 Bft) E-NE 67 0 min 0 W/m 6,3 C 10,9 C 10,1 km/h (2 Bft)
31/03/2012 23:00 10,6 C 73 % 1012,9 hPa 0,0 mm 10,4 km/h (2 Bft) N 360 0 min 0 W/m 6,0 C 10,6 C 13,0 km/h (3 Bft)
31/03/2012 23:10 10,3 C 73 % 1012,9 hPa 0,0 mm 6,5 km/h (2 Bft) N-NE 22 0 min 0 W/m 5,7 C 10,3 C 10,1 km/h (2 Bft)
31/03/2012 23:20 9,9 C 73 % 1013,0 hPa 0,0 mm 11,9 km/h (2 Bft) NE 45 0 min 0 W/m 5,3 C 8,2 C 14,4 km/h (3 Bft)
31/03/2012 23:30 9,5 C 74 % 1013,1 hPa 0,0 mm 10,4 km/h (2 Bft) E-NE 67 0 min 0 W/m 5,1 C 8,0 C 12,2 km/h (2 Bft)
31/03/2012 23:40 9,1 C 75 % 1013,1 hPa 0,0 mm 6,8 km/h (2 Bft) NE 45 0 min 0 W/m 4,9 C 8,2 C 10,1 km/h (2 Bft)
31/03/2012 23:50 8,8 C 75 % 1013,1 hPa 0,0 mm 5,4 km/h (2 Bft) E 90 0 min 0 W/m 4,6 C 8,3 C 5,4 km/h (2 Bft)
_ Min-Heure 08:00 14:30 19:00 - 10:20 - - - - 08:00 08:00 10:10
Minimum _ 3,6 C 45 % 1011,2 hPa - 0,0 km/h (0 Bft) - - - - 1,5 C 3,6 C 0,0 km/h (0 Bft)
_ Max-Heure 16:00 09:10 00:20 23:50 18:00 - - 20:10 23:50 11:10 16:00 18:00
Maximum _ 20,6 C 89 % 1017,2 hPa 0,0 mm 14,4 km/h
N-NE (3 Bft)
- - 2 min 0 W/m 9,5 C 20,6 C 22,0 km/h
N-NE (4 Bft)
Moyenne _ 12,4 C 67 % 1013,7 hPa #0,0 mm 4,6 km/h (1 Bft) N-NE - #2:30 h 0 W/m 5,8 C 12,4 C 6,7 km/h (2 Bft)
Saint Bonnet de Bellac- Haute Vienne - France